Location: Newark
(40.7066°N, 111.8219°W)
Time: 23:19:04
(UTC+00:00)

deb Explorer IX - Pass Details

Date: 18 November 2019
Orbit: 545 x 1105 km, 38.8° (Epoch: 08 December)

Event Time Altitude Azimuth Distance (km) Brightness Sun altitude
Exits shadow 11:12:57 28° 102° (ESE) 1,318 ? -34.8°
Drops below altitude 10° 11:15:07 10° 97° (E) 2,091 ? -34.4°
Sets 11:17:18 0° 96° (E) 2,931 ? -34.0°
